This is the latest recevied weather packets stored in our database for station/object KB1WCR. If no packets are shown the sender has not sent any weather packets the latest 10 day(s).
| Time | Temp. | Humidity | Pressure | Rain* | Wind** | Luminosity | Snow |
|---|---|---|---|---|---|---|---|
| 1788276481 | 21.67° C | 71% | 1018.4 hPa | 0 mm | - | 480 W/m² | - |
| 1788276181 | 21.67° C | 71% | 1018.5 hPa | 0 mm | - | 565 W/m² | - |
| 1788275876 | 20.56° C | 73% | 1018.4 hPa | 0 mm | - | 547 W/m² | - |
| 1788275576 | 20° C | 73% | 1018.2 hPa | 0 mm | - | 540 W/m² | - |
| 1788275270 | 20° C | 75% | 1018.2 hPa | 0 mm | - | 296 W/m² | - |
| 1788274968 | 20° C | 74% | 1018 hPa | 0 mm | - | 350 W/m² | - |
| 1788274666 | 20° C | 74% | 1017.9 hPa | 0 mm | - | 269 W/m² | - |
| 1788274360 | 20.56° C | 73% | 1018 hPa | 0 mm | - | 350 W/m² | - |
| 1788274056 | 20.56° C | 75% | 1018 hPa | 0 mm | - | 665 W/m² | - |
| 1788273751 | 20° C | 73% | 1018.1 hPa | 0 mm | - | 635 W/m² | - |
| 1788273447 | 18.89° C | 80% | 1018.1 hPa | 0 mm | - | 646 W/m² | - |
| 1788273142 | 18.89° C | 77% | 1018.1 hPa | 0 mm | - | 246 W/m² | - |
| 1788272839 | 18.89° C | 78% | 1018.2 hPa | 0 mm | - | 355 W/m² | - |
| 1788272537 | 18.89° C | 76% | 1018.5 hPa | 0 mm | - | 303 W/m² | - |
| 1788272233 | 18.33° C | 79% | 1018.4 hPa | 0 mm | - | 417 W/m² | - |
| 1788271927 | 18.33° C | 79% | 1018.5 hPa | 0 mm | - | 339 W/m² | - |
| 1788271626 | 17.78° C | 82% | 1018.8 hPa | 0 mm | - | 324 W/m² | - |
| 1788271324 | 17.78° C | 83% | 1018.9 hPa | 0 mm | - | 373 W/m² | - |
| 1788271020 | 17.22° C | 83% | 1018.7 hPa | 0 mm | - | 265 W/m² | - |
| 1788270714 | 16.67° C | 82% | 1018.8 hPa | 0 mm | - | 196 W/m² | - |
| 1788270410 | 16.67° C | 85% | 1018.8 hPa | 0 mm | - | 232 W/m² | - |
| 1788270105 | 16.67° C | 86% | 1018.6 hPa | 0 mm | - | 173 W/m² | - |
| 1788269824 | 16.11° C | 86% | 1018.7 hPa | 0 mm | - | 173 W/m² | - |
| 1788269503 | 16.11° C | 86% | 1018.8 hPa | 0 mm | - | 153 W/m² | - |
| 1788269197 | 16.11° C | 87% | 1018.9 hPa | 0 mm | - | 138 W/m² | - |
* Rain latest hour (hover to see other rain measurements)
** Current wind speed in m/s (hover to see current wind gust speed)